| time (UTC) | temp C | wind direction | speed KPH | gust KPH | rain 1hr cm | rain 24hr cm | rain mn cm | humidity % | barometer mb |
| 20260507201028 | 19 | 327 | 4.8 | 16.1 | 0.00 | 0.00 | 0.00 | 21 | 1009.8 |
| 20260507200526 | 18 | 349 | 8.0 | 17.7 | 0.00 | 0.00 | 0.00 | 21 | 1009.7 |
| 20260507200027 | 18 | 315 | 6.4 | 17.7 | 0.00 | 0.00 | 0.00 | 21 | 1009.8 |
| 20260507195529 | 18 | 259 | 4.8 | 14.5 | 0.00 | 0.00 | 0.00 | 21 | 1009.8 |
| 20260507195027 | 18 | 323 | 4.8 | 14.5 | 0.00 | 0.00 | 0.00 | 20 | 1009.9 |
| 20260507194534 | 18 | 306 | 6.4 | 17.7 | 0.00 | 0.00 | 0.00 | 21 | 1009.9 |
| 20260507193528 | 18 | 315 | 3.2 | 14.5 | 0.00 | 0.00 | 0.00 | 21 | 1010.1 |
| 20260507193028 | 18 | 218 | 3.2 | 16.1 | 0.00 | 0.00 | 0.00 | 21 | 1010.1 |
| 20260507192527 | 18 | 313 | 6.4 | 16.1 | 0.00 | 0.00 | 0.00 | 21 | 1010.1 |
| 20260507192025 | 17 | 315 | 6.4 | 19.3 | 0.00 | 0.00 | 0.00 | 22 | 1010.0 |
| 20260507191524 | 17 | 234 | 4.8 | 20.9 | 0.00 | 0.00 | 0.00 | 20 | 1010.1 |
| 20260507191023 | 17 | 331 | 6.4 | 16.1 | 0.00 | 0.00 | 0.00 | 21 | 1010.2 |
| 20260507190523 | 17 | 250 | 9.7 | 16.1 | 0.00 | 0.00 | 0.00 | 22 | 1010.2 |
| 20260507190037 | 17 | 34 | 4.8 | 14.5 | 0.00 | 0.00 | 0.00 | 22 | 1010.2 |
| 20260507185525 | 17 | 315 | 6.4 | 19.3 | 0.00 | 0.00 | 0.00 | 21 | 1010.4 |
| 20260507185020 | 17 | 355 | 4.8 | 19.3 | 0.00 | 0.00 | 0.00 | 22 | 1010.3 |
| 20260507184527 | 17 | 323 | 6.4 | 17.7 | 0.00 | 0.00 | 0.00 | 23 | 1010.4 |
| 20260507183514 | 16 | 218 | 6.4 | 11.3 | 0.00 | 0.00 | 0.00 | 24 | 1010.5 |
| 20260507183015 | 16 | 146 | 1.6 | 8.0 | 0.00 | 0.00 | 0.00 | 24 | 1010.6 |
| 20260507182512 | 16 | 146 | 1.6 | 16.1 | 0.00 | 0.00 | 0.00 | 23 | 1010.8 |
| 20260507182012 | 16 | 140 | 8.0 | 19.3 | 0.00 | 0.00 | 0.00 | 23 | 1010.8 |
| 20260507181511 | 16 | 80 | 9.7 | 19.3 | 0.00 | 0.00 | 0.00 | 23 | 1010.8 |
| 20260507181010 | 15 | 238 | 4.8 | 16.1 | 0.00 | 0.00 | 0.00 | 24 | 1011.0 |
| 20260507180510 | 15 | 323 | 8.0 | 16.1 | 0.00 | 0.00 | 0.00 | 24 | 1011.0 |
| 20260507180012 | 15 | 222 | 6.4 | 17.7 | 0.00 | 0.00 | 0.00 | 23 | 1011.0 |
| 20260507175509 | 15 | 266 | 9.7 | 17.7 | 0.00 | 0.00 | 0.00 | 24 | 1011.1 |
| 20260507175008 | 15 | 190 | 8.0 | 16.1 | 0.00 | 0.00 | 0.00 | 24 | 1011.0 |
| 20260507174511 | 15 | 117 | 6.4 | 12.9 | 0.00 | 0.00 | 0.00 | 24 | 1011.1 |
| 20260507173513 | 15 | 213 | 8.0 | 14.5 | 0.00 | 0.00 | 0.00 | 24 | 1011.1 |
| 20260507173017 | 15 | 222 | 3.2 | 9.7 | 0.00 | 0.00 | 0.00 | 25 | 1011.1 |
| 20260507172506 | 15 | 323 | 4.8 | 8.0 | 0.00 | 0.00 | 0.00 | 24 | 1011.1 |
| 20260507172007 | 15 | 150 | 4.8 | 12.9 | 0.00 | 0.00 | 0.00 | 24 | 1011.2 |
| 20260507171505 | 14 | 182 | 3.2 | 12.9 | 0.00 | 0.00 | 0.00 | 24 | 1011.2 |
| 20260507171004 | 14 | 187 | 6.4 | 12.9 | 0.00 | 0.00 | 0.00 | 24 | 1011.2 |
| 20260507170504 | 15 | 183 | 4.8 | 11.3 | 0.00 | 0.00 | 0.00 | 24 | 1011.4 |
| 20260507170005 | 14 | 105 | 4.8 | 11.3 | 0.00 | 0.00 | 0.00 | 24 | 1011.3 |
| 20260507165502 | 14 | 124 | 3.2 | 8.0 | 0.00 | 0.00 | 0.00 | 24 | 1011.4 |
| 20260507165001 | 14 | 107 | 3.2 | 9.7 | 0.00 | 0.00 | 0.00 | 25 | 1011.5 |
| 20260507164502 | 13 | 140 | 1.6 | 11.3 | 0.00 | 0.00 | 0.00 | 25 | 1011.5 |
| 20260507163601 | 13 | 173 | 6.4 | 8.0 | 0.00 | 0.00 | 0.00 | 25 | 1011.4 |
| 20260507163101 | 13 | 202 | 0.0 | 9.7 | 0.00 | 0.00 | 0.00 | 26 | 1011.5 |
| 20260507162559 | 13 | 202 | 6.4 | 9.7 | 0.00 | 0.00 | 0.00 | 24 | 1011.5 |
| 20260507162058 | 13 | 198 | 3.2 | 9.7 | 0.00 | 0.00 | 0.00 | 25 | 1011.6 |
| 20260507161600 | 12 | 224 | 1.6 | 9.7 | 0.00 | 0.00 | 0.00 | 26 | 1011.6 |
| 20260507161059 | 12 | 221 | 4.8 | 9.7 | 0.00 | 0.00 | 0.00 | 27 | 1011.8 |
| 20260507160555 | 12 | 202 | 6.4 | 11.3 | 0.00 | 0.00 | 0.00 | 28 | 1011.8 |
| 20260507160053 | 12 | 223 | 4.8 | 12.9 | 0.00 | 0.00 | 0.00 | 29 | 1011.9 |
| 20260507155553 | 11 | 193 | 4.8 | 11.3 | 0.00 | 0.00 | 0.00 | 29 | 1011.8 |
| 20260507155051 | 11 | 190 | 8.0 | 11.3 | 0.00 | 0.00 | 0.00 | 30 | 1011.8 |
| 20260507154553 | 11 | 201 | 6.4 | 11.3 | 0.00 | 0.00 | 0.00 | 30 | 1012.0 |
| 20260507154149 | 10 | 209 | 3.2 | 9.7 | 0.00 | 0.00 | 0.00 | 32 | 1011.8 |
| 20260507153549 | 10 | 209 | 0.0 | 9.7 | 0.00 | 0.00 | 0.00 | 31 | 1012.0 |
| 20260507153047 | 10 | 205 | 3.2 | 8.0 | 0.00 | 0.00 | 0.00 | 32 | 1012.0 |
| 20260507152548 | 10 | 217 | 1.6 | 6.4 | 0.00 | 0.00 | 0.00 | 32 | 1012.0 |
| 20260507152047 | 10 | 256 | 1.6 | 4.8 | 0.00 | 0.00 | 0.00 | 32 | 1012.1 |
| 20260507151548 | 10 | 256 | 1.6 | 4.8 | 0.00 | 0.00 | 0.00 | 32 | 1012.0 |
| 20260507151049 | 10 | 258 | 0.0 | 4.8 | 0.00 | 0.00 | 0.00 | 32 | 1011.9 |
| 20260507150543 | 9 | 258 | 1.6 | 4.8 | 0.00 | 0.00 | 0.00 | 34 | 1011.9 |
| 20260507150045 | 9 | 263 | 0.0 | 4.8 | 0.00 | 0.00 | 0.00 | 34 | 1012.0 |
| 20260507145541 | 8 | 267 | 0.0 | 3.2 | 0.00 | 0.00 | 0.00 | 35 | 1012.0 |
| 20260507145041 | 8 | 271 | 0.0 | 4.8 | 0.00 | 0.00 | 0.00 | 35 | 1012.0 |
| 20260507144539 | 7 | 271 | 1.6 | 4.8 | 0.00 | 0.00 | 0.00 | 36 | 1012.1 |
| 20260507143541 | 7 | 271 | 0.0 | 4.8 | 0.00 | 0.00 | 0.00 | 38 | 1012.2 |
| 20260507143044 | 6 | 271 | 0.0 | 4.8 | 0.00 | 0.00 | 0.00 | 38 | 1012.1 |
| 20260507142539 | 6 | 271 | 0.0 | 3.2 | 0.00 | 0.00 | 0.00 | 39 | 1012.3 |
| 20260507142037 | 6 | 271 | 0.0 | 3.2 | 0.00 | 0.00 | 0.00 | 41 | 1012.2 |
| 20260507141536 | 5 | 271 | 0.0 | 4.8 | 0.00 | 0.00 | 0.00 | 41 | 1012.3 |
| 20260507141038 | 5 | 271 | 1.6 | 4.8 | 0.00 | 0.00 | 0.00 | 40 | 1012.2 |
| 20260507140536 | 5 | 271 | 1.6 | 4.8 | 0.00 | 0.00 | 0.00 | 40 | 1012.2 |
| 20260507140039 | 5 | 272 | 0.0 | 4.8 | 0.00 | 0.00 | 0.00 | 40 | 1012.2 |
| 20260507135535 | 5 | 273 | 0.0 | 4.8 | 0.00 | 0.00 | 0.00 | 41 | 1012.2 |
| 20260507135033 | 5 | 273 | 0.0 | 3.2 | 0.00 | 0.00 | 0.00 | 42 | 1012.2 |
| 20260507134533 | 5 | 273 | 0.0 | 4.8 | 0.00 | 0.00 | 0.00 | 43 | 1012.2 |
| 20260507133526 | 4 | 279 | 0.0 | 3.2 | 0.00 | 0.00 | 0.00 | 45 | 1012.1 |
| 20260507133027 | 4 | 279 | 0.0 | 3.2 | 0.00 | 0.00 | 0.00 | 45 | 1012.3 |
| 20260507132523 | 3 | 289 | 0.0 | 0.0 | 0.00 | 0.00 | 0.00 | 44 | 1012.1 |
| 20260507132022 | 3 | 289 | 0.0 | 0.0 | 0.00 | 0.00 | 0.00 | 45 | 1012.4 |
| 20260507131521 | 2 | 289 | 0.0 | 1.6 | 0.00 | 0.00 | 0.00 | 45 | 1012.3 |
| 20260507131019 | 2 | 289 | 0.0 | 1.6 | 0.00 | 0.00 | 0.00 | 47 | 1012.3 |
| 20260507130522 | 1 | 289 | 0.0 | 1.6 | 0.00 | 0.00 | 0.00 | 47 | 1012.4 |
| 20260507130018 | 1 | 289 | 0.0 | 0.0 | 0.00 | 0.00 | 0.00 | 50 | 1012.2 |
| 20260507125518 | 0 | 289 | 0.0 | 0.0 | 0.00 | 0.00 | 0.00 | 52 | 1012.3 |
| 20260507125017 | 0 | 289 | 0.0 | 0.0 | 0.00 | 0.00 | 0.00 | 52 | 1012.2 |
| 20260507124521 | 0 | 289 | 0.0 | 0.0 | 0.00 | 0.00 | 0.00 | 53 | 1012.2 |
| 20260507123525 | -1 | 289 | 0.0 | 0.0 | 0.00 | 0.00 | 0.00 | 55 | 1012.2 |
| 20260507123025 | -1 | 289 | 0.0 | 0.0 | 0.00 | 0.00 | 0.00 | 56 | 1012.1 |
| 20260507122525 | -1 | 289 | 0.0 | 0.0 | 0.00 | 0.00 | 0.00 | 57 | 1012.0 |
| 20260507122024 | -1 | 289 | 0.0 | 0.0 | 0.00 | 0.00 | 0.00 | 57 | 1012.0 |
| 20260507121524 | -1 | 289 | 0.0 | 0.0 | 0.00 | 0.00 | 0.00 | 57 | 1012.0 |
| 20260507121024 | -1 | 289 | 0.0 | 0.0 | 0.00 | 0.00 | 0.00 | 56 | 1011.9 |
| 20260507120523 | -2 | 289 | 0.0 | 1.6 | 0.00 | 0.00 | 0.00 | 55 | 1011.9 |
| 20260507120023 | -2 | 289 | 0.0 | 1.6 | 0.00 | 0.00 | 0.00 | 56 | 1011.8 |
| 20260507115523 | -2 | 289 | 0.0 | 1.6 | 0.00 | 0.00 | 0.00 | 56 | 1011.8 |
| 20260507115024 | -2 | 289 | 0.0 | 1.6 | 0.00 | 0.00 | 0.00 | 56 | 1011.9 |
| 20260507114530 | -2 | 289 | 0.0 | 4.8 | 0.00 | 0.00 | 0.00 | 56 | 1011.7 |
| 20260507113513 | -2 | 289 | 0.0 | 0.0 | 0.00 | 0.00 | 0.00 | 54 | 1011.9 |
| 20260507113033 | -2 | 289 | 0.0 | 0.0 | 0.00 | 0.00 | 0.00 | 55 | 1011.9 |
| 20260507112512 | -2 | 289 | 0.0 | 0.0 | 0.00 | 0.00 | 0.00 | 55 | 1011.8 |
| 20260507112012 | -2 | 289 | 0.0 | 0.0 | 0.00 | 0.00 | 0.00 | 54 | 1011.8 |
| 20260507111512 | -2 | 289 | 0.0 | 0.0 | 0.00 | 0.00 | 0.00 | 55 | 1011.9 |
| 20260507111011 | -2 | 289 | 0.0 | 0.0 | 0.00 | 0.00 | 0.00 | 55 | 1011.9 |
| 20260507110511 | -2 | 289 | 0.0 | 0.0 | 0.00 | 0.00 | 0.00 | 54 | 1011.8 |
| 20260507110015 | -1 | 289 | 0.0 | 0.0 | 0.00 | 0.00 | 0.00 | 53 | 1011.8 |
| 20260507105508 | -1 | 289 | 0.0 | 0.0 | 0.00 | 0.00 | 0.00 | 54 | 1011.9 |
| 20260507105008 | -1 | 289 | 0.0 | 0.0 | 0.00 | 0.00 | 0.00 | 53 | 1011.9 |
| 20260507104508 | -1 | 289 | 0.0 | 0.0 | 0.00 | 0.00 | 0.00 | 53 | 1011.9 |
| 20260507103508 | -1 | 289 | 0.0 | 0.0 | 0.00 | 0.00 | 0.00 | 53 | 1011.8 |
| 20260507103008 | -1 | 289 | 0.0 | 0.0 | 0.00 | 0.00 | 0.00 | 52 | 1011.9 |
| 20260507102506 | -1 | 289 | 0.0 | 0.0 | 0.00 | 0.00 | 0.00 | 50 | 1011.9 |
| 20260507102006 | -1 | 289 | 0.0 | 0.0 | 0.00 | 0.00 | 0.00 | 50 | 1011.8 |
| 20260507101513 | 0 | 290 | 0.0 | 0.0 | 0.00 | 0.00 | 0.00 | 50 | 1011.7 |
| 20260507101005 | 0 | 290 | 0.0 | 0.0 | 0.00 | 0.00 | 0.00 | 49 | 1011.9 |
| 20260507100504 | 0 | 290 | 0.0 | 0.0 | 0.00 | 0.00 | 0.00 | 49 | 1011.8 |
| 20260507100005 | 0 | 290 | 0.0 | 0.0 | 0.00 | 0.00 | 0.00 | 49 | 1011.9 |
| 20260507095503 | 0 | 290 | 0.0 | 0.0 | 0.00 | 0.00 | 0.00 | 49 | 1011.8 |
| 20260507095003 | 0 | 290 | 0.0 | 0.0 | 0.00 | 0.00 | 0.00 | 49 | 1011.7 |
| 20260507094503 | 0 | 290 | 0.0 | 0.0 | 0.00 | 0.00 | 0.00 | 48 | 1011.9 |
| 20260507093505 | 0 | 290 | 0.0 | 0.0 | 0.00 | 0.00 | 0.00 | 49 | 1011.8 |
| 20260507093101 | 0 | 290 | 0.0 | 0.0 | 0.00 | 0.00 | 0.00 | 48 | 1011.9 |
| 20260507092502 | 0 | 290 | 0.0 | 3.2 | 0.00 | 0.00 | 0.00 | 49 | 1011.9 |
| 20260507092000 | 0 | 290 | 0.0 | 3.2 | 0.00 | 0.00 | 0.00 | 49 | 1011.9 |
| 20260507091635 | 0 | 290 | 1.6 | 3.2 | 0.00 | 0.00 | 0.00 | 49 | 1011.9 |
| 20260507091105 | -1 | 290 | 0.0 | 1.6 | 0.00 | 0.00 | 0.00 | 49 | 1012.0 |
| 20260507090559 | 0 | 290 | 0.0 | 3.2 | 0.00 | 0.00 | 0.00 | 48 | 1012.0 |
| 20260507090057 | 0 | 290 | 0.0 | 4.8 | 0.00 | 0.00 | 0.00 | 46 | 1011.9 |
| 20260507085555 | 0 | 290 | 0.0 | 4.8 | 0.00 | 0.00 | 0.00 | 47 | 1012.0 |
| 20260507085054 | 0 | 290 | 3.2 | 4.8 | 0.00 | 0.00 | 0.00 | 46 | 1011.9 |
| 20260507084604 | 0 | 283 | 1.6 | 4.8 | 0.00 | 0.00 | 0.00 | 47 | 1011.9 |
| 20260507084153 | 0 | 283 | 0.0 | 3.2 | 0.00 | 0.00 | 0.00 | 46 | 1012.1 |
| 20260507083555 | 0 | 283 | 0.0 | 3.2 | 0.00 | 0.00 | 0.00 | 46 | 1012.0 |
| 20260507083052 | 0 | 283 | 0.0 | 3.2 | 0.00 | 0.00 | 0.00 | 47 | 1012.1 |
| 20260507082552 | 0 | 283 | 0.0 | 0.0 | 0.00 | 0.00 | 0.00 | 46 | 1011.9 |
| 20260507082050 | 0 | 283 | 0.0 | 0.0 | 0.00 | 0.00 | 0.00 | 45 | 1012.0 |
| 20260507081557 | 1 | 283 | 0.0 | 0.0 | 0.00 | 0.00 | 0.00 | 44 | 1011.9 |
| 20260507081052 | 1 | 283 | 0.0 | 0.0 | 0.00 | 0.00 | 0.00 | 44 | 1012.0 |
| 20260507080550 | 1 | 283 | 0.0 | 1.6 | 0.00 | 0.00 | 0.00 | 44 | 1012.0 |
| 20260507080050 | 1 | 283 | 0.0 | 4.8 | 0.00 | 0.00 | 0.00 | 44 | 1012.0 |
| 20260507075552 | 1 | 283 | 3.2 | 4.8 | 0.00 | 0.00 | 0.00 | 45 | 1012.0 |
| 20260507075049 | 1 | 284 | 1.6 | 4.8 | 0.00 | 0.00 | 0.00 | 46 | 1012.0 |
| 20260507074555 | 0 | 284 | 0.0 | 3.2 | 0.00 | 0.00 | 0.00 | 46 | 1012.1 |
| 20260507074148 | 0 | 284 | 0.0 | 3.2 | 0.00 | 0.00 | 0.00 | 45 | 1012.0 |
| 20260507073548 | 1 | 284 | 1.6 | 4.8 | 0.00 | 0.00 | 0.00 | 44 | 1011.9 |
| 20260507073052 | 1 | 284 | 1.6 | 3.2 | 0.00 | 0.00 | 0.00 | 44 | 1011.9 |
| 20260507072547 | 1 | 284 | 1.6 | 3.2 | 0.00 | 0.00 | 0.00 | 44 | 1011.8 |
| 20260507072050 | 1 | 284 | 0.0 | 4.8 | 0.00 | 0.00 | 0.00 | 44 | 1011.9 |
| 20260507071547 | 1 | 284 | 1.6 | 4.8 | 0.00 | 0.00 | 0.00 | 44 | 1011.8 |
| 20260507071046 | 1 | 284 | 0.0 | 6.4 | 0.00 | 0.00 | 0.00 | 44 | 1011.8 |
| 20260507070545 | 1 | 285 | 3.2 | 6.4 | 0.00 | 0.00 | 0.00 | 44 | 1011.8 |
| 20260507070046 | 1 | 319 | 0.0 | 3.2 | 0.00 | 0.00 | 0.00 | 44 | 1011.9 |
| 20260507065542 | 1 | 321 | 1.6 | 3.2 | 0.00 | 0.00 | 0.00 | 43 | 1011.9 |
| 20260507065042 | 1 | 321 | 0.0 | 3.2 | 0.00 | 0.00 | 0.00 | 43 | 1012.0 |
| 20260507064541 | 1 | 321 | 0.0 | 4.8 | 0.00 | 0.00 | 0.00 | 42 | 1011.9 |
| 20260507064141 | 1 | 321 | 0.0 | 4.8 | 0.00 | 0.00 | 0.00 | 41 | 1011.9 |
| 20260507063542 | 1 | 321 | 0.0 | 1.6 | 0.00 | 0.00 | 0.00 | 42 | 1012.0 |
| 20260507063043 | 1 | 321 | 0.0 | 3.2 | 0.00 | 0.00 | 0.00 | 42 | 1011.9 |
| 20260507062541 | 1 | 321 | 1.6 | 4.8 | 0.00 | 0.00 | 0.00 | 42 | 1012.0 |
| 20260507062040 | 1 | 321 | 1.6 | 4.8 | 0.00 | 0.00 | 0.00 | 42 | 1011.9 |
| 20260507061540 | 1 | 321 | 1.6 | 4.8 | 0.00 | 0.00 | 0.00 | 41 | 1011.9 |
| 20260507061045 | 1 | 19 | 0.0 | 4.8 | 0.00 | 0.00 | 0.00 | 41 | 1012.0 |
| 20260507060539 | 2 | 32 | 0.0 | 3.2 | 0.00 | 0.00 | 0.00 | 41 | 1011.7 |
| 20260507060040 | 2 | 32 | 0.0 | 6.4 | 0.00 | 0.00 | 0.00 | 41 | 1012.0 |
| 20260507055539 | 1 | 32 | 1.6 | 12.9 | 0.00 | 0.00 | 0.00 | 40 | 1011.9 |
| 20260507055039 | 1 | 28 | 3.2 | 12.9 | 0.00 | 0.00 | 0.00 | 41 | 1011.9 |
| 20260507054539 | 1 | 141 | 0.0 | 4.8 | 0.00 | 0.00 | 0.00 | 43 | 1011.8 |
| 20260507054139 | 1 | 141 | 1.6 | 4.8 | 0.00 | 0.00 | 0.00 | 42 | 1011.7 |
| 20260507053539 | 2 | 85 | 1.6 | 3.2 | 0.00 | 0.00 | 0.00 | 39 | 1011.8 |
| 20260507053039 | 2 | 80 | 0.0 | 3.2 | 0.00 | 0.00 | 0.00 | 38 | 1011.9 |
| 20260507052544 | 3 | 79 | 0.0 | 4.8 | 0.00 | 0.00 | 0.00 | 39 | 1011.9 |
| 20260507052039 | 3 | 79 | 1.6 | 4.8 | 0.00 | 0.00 | 0.00 | 39 | 1012.0 |
| 20260507051539 | 3 | 78 | 1.6 | 3.2 | 0.00 | 0.00 | 0.00 | 39 | 1012.0 |
| 20260507051038 | 3 | 78 | 0.0 | 0.0 | 0.00 | 0.00 | 0.00 | 38 | 1012.1 |
| 20260507050537 | 3 | 78 | 0.0 | 4.8 | 0.00 | 0.00 | 0.00 | 37 | 1012.1 |
| 20260507050041 | 3 | 78 | 1.6 | 6.4 | 0.00 | 0.00 | 0.00 | 37 | 1012.3 |
| 20260507045540 | 4 | 315 | 0.0 | 3.2 | 0.00 | 0.00 | 0.00 | 37 | 1012.2 |
| 20260507045036 | 3 | 315 | 1.6 | 3.2 | 0.00 | 0.00 | 0.00 | 38 | 1012.1 |
| 20260507044536 | 3 | 315 | 1.6 | 3.2 | 0.00 | 0.00 | 0.00 | 38 | 1012.3 |
| 20260507044136 | 3 | 315 | 0.0 | 3.2 | 0.00 | 0.00 | 0.00 | 38 | 1012.3 |
| 20260507043539 | 3 | 315 | 0.0 | 0.0 | 0.00 | 0.00 | 0.00 | 37 | 1012.4 |
| 20260507043053 | 3 | 315 | 0.0 | 0.0 | 0.00 | 0.00 | 0.00 | 37 | 1012.3 |
| 20260507042539 | 3 | 315 | 0.0 | 1.6 | 0.00 | 0.00 | 0.00 | 36 | 1012.3 |
| 20260507042042 | 3 | 315 | 0.0 | 3.2 | 0.00 | 0.00 | 0.00 | 37 | 1012.3 |
| 20260507041538 | 3 | 315 | 0.0 | 3.2 | 0.00 | 0.00 | 0.00 | 37 | 1012.3 |
| 20260507041037 | 3 | 315 | 0.0 | 3.2 | 0.00 | 0.00 | 0.00 | 36 | 1012.4 |
| 20260507040537 | 3 | 315 | 0.0 | 0.0 | 0.00 | 0.00 | 0.00 | 36 | 1012.4 |
| 20260507040039 | 3 | 315 | 0.0 | 0.0 | 0.00 | 0.00 | 0.00 | 36 | 1012.4 |
| 20260507035537 | 3 | 315 | 0.0 | 0.0 | 0.00 | 0.00 | 0.00 | 36 | 1012.5 |
| 20260507035036 | 4 | 315 | 0.0 | 0.0 | 0.00 | 0.00 | 0.00 | 36 | 1012.4 |
| 20260507034537 | 4 | 315 | 0.0 | 0.0 | 0.00 | 0.00 | 0.00 | 35 | 1012.6 |
| 20260507034136 | 4 | 315 | 0.0 | 0.0 | 0.00 | 0.00 | 0.00 | 35 | 1012.5 |
| 20260507033534 | 4 | 315 | 0.0 | 1.6 | 0.00 | 0.00 | 0.00 | 36 | 1012.6 |
| 20260507033034 | 3 | 315 | 0.0 | 1.6 | 0.00 | 0.00 | 0.00 | 36 | 1012.7 |
| 20260507032533 | 3 | 317 | 0.0 | 0.0 | 0.00 | 0.00 | 0.00 | 36 | 1012.5 |
| 20260507032033 | 3 | 317 | 0.0 | 0.0 | 0.00 | 0.00 | 0.00 | 36 | 1012.6 |
| 20260507031532 | 4 | 317 | 0.0 | 3.2 | 0.00 | 0.00 | 0.00 | 35 | 1012.6 |
| 20260507031032 | 4 | 317 | 0.0 | 3.2 | 0.00 | 0.00 | 0.00 | 35 | 1012.6 |
| 20260507030536 | 3 | 317 | 1.6 | 3.2 | 0.00 | 0.00 | 0.00 | 35 | 1012.6 |
| 20260507030132 | 3 | 317 | 1.6 | 3.2 | 0.00 | 0.00 | 0.00 | 35 | 1012.7 |
| 20260507025530 | 3 | 317 | 1.6 | 3.2 | 0.00 | 0.00 | 0.00 | 35 | 1012.7 |
| 20260507025032 | 4 | 317 | 1.6 | 3.2 | 0.00 | 0.00 | 0.00 | 35 | 1012.7 |
| 20260507024530 | 4 | 317 | 1.6 | 4.8 | 0.00 | 0.00 | 0.00 | 34 | 1012.6 |
| 20260507024030 | 5 | 317 | 3.2 | 4.8 | 0.00 | 0.00 | 0.00 | 33 | 1012.5 |
| 20260507023034 | 6 | 316 | 0.0 | 0.0 | 0.00 | 0.00 | 0.00 | 34 | 1012.6 |
| 20260507022531 | 6 | 311 | 0.0 | 0.0 | 0.00 | 0.00 | 0.00 | 33 | 1012.7 |
| 20260507022035 | 6 | 311 | 0.0 | 0.0 | 0.00 | 0.00 | 0.00 | 32 | 1012.7 |
| 20260507021532 | 7 | 311 | 0.0 | 0.0 | 0.00 | 0.00 | 0.00 | 31 | 1012.7 |
| 20260507021033 | 7 | 311 | 0.0 | 0.0 | 0.00 | 0.00 | 0.00 | 31 | 1012.7 |
| 20260507020530 | 8 | 311 | 0.0 | 0.0 | 0.00 | 0.00 | 0.00 | 29 | 1012.7 |
| 20260507020045 | 8 | 311 | 0.0 | 0.0 | 0.00 | 0.00 | 0.00 | 28 | 1012.7 |
| 20260507015529 | 9 | 311 | 0.0 | 1.6 | 0.00 | 0.00 | 0.00 | 27 | 1012.8 |
| 20260507015030 | 10 | 311 | 0.0 | 1.6 | 0.00 | 0.00 | 0.00 | 27 | 1012.7 |
| 20260507014533 | 11 | 311 | 0.0 | 1.6 | 0.00 | 0.00 | 0.00 | 26 | 1012.7 |
| 20260507014129 | 11 | 311 | 0.0 | 4.8 | 0.00 | 0.00 | 0.00 | 25 | 1012.8 |
| 20260507013525 | 11 | 311 | 0.0 | 4.8 | 0.00 | 0.00 | 0.00 | 25 | 1012.7 |
| 20260507013026 | 11 | 311 | 1.6 | 4.8 | 0.00 | 0.00 | 0.00 | 24 | 1012.8 |
| 20260507012524 | 12 | 310 | 0.0 | 6.4 | 0.00 | 0.00 | 0.00 | 24 | 1012.7 |
| 20260507012024 | 11 | 310 | 0.0 | 8.0 | 0.00 | 0.00 | 0.00 | 24 | 1012.7 |
| 20260507011535 | 11 | 301 | 3.2 | 8.0 | 0.00 | 0.00 | 0.00 | 24 | 1012.8 |
| 20260507011023 | 12 | 303 | 3.2 | 8.0 | 0.00 | 0.00 | 0.00 | 23 | 1012.7 |
| 20260507010523 | 12 | 322 | 0.0 | 6.4 | 0.00 | 0.00 | 0.00 | 23 | 1012.8 |
| 20260507010026 | 13 | 312 | 1.6 | 12.9 | 0.00 | 0.00 | 0.00 | 23 | 1012.8 |
| 20260507005523 | 13 | 313 | 3.2 | 12.9 | 0.00 | 0.00 | 0.00 | 22 | 1012.8 |
| 20260507005021 | 13 | 360 | 4.8 | 9.7 | 0.00 | 0.00 | 0.00 | 22 | 1012.9 |
| 20260507004521 | 13 | 13 | 4.8 | 9.7 | 0.00 | 0.00 | 0.00 | 22 | 1012.9 |
| 20260507004122 | 13 | 301 | 6.4 | 16.1 | 0.00 | 0.00 | 0.00 | 22 | 1012.9 |
| 20260507003522 | 13 | 302 | 6.4 | 16.1 | 0.00 | 0.00 | 0.00 | 22 | 1013.1 |
| 20260507003021 | 13 | 315 | 4.8 | 20.9 | 0.00 | 0.00 | 0.00 | 22 | 1012.9 |
| 20260507002522 | 13 | 277 | 6.4 | 20.9 | 0.00 | 0.00 | 0.00 | 22 | 1013.0 |
| 20260507002020 | 13 | 13 | 6.4 | 9.7 | 0.00 | 0.00 | 0.00 | 22 | 1013.0 |
| 20260507001545 | 13 | 319 | 6.4 | 14.5 | 0.00 | 0.00 | 0.00 | 22 | 1013.1 |
| 20260507001024 | 13 | 9 | 4.8 | 14.5 | 0.00 | 0.00 | 0.00 | 22 | 1013.1 |
| 20260507000519 | 13 | 279 | 3.2 | 16.1 | 0.00 | 0.00 | 0.00 | 22 | 1013.1 |
| 20260507000023 | 13 | 316 | 8.0 | 17.7 | 0.00 | 0.00 | 0.00 | 22 | 1013.2 |
| 20260506235521 | 13 | 293 | 4.8 | 22.5 | 0.00 | 0.00 | 0.00 | 23 | 1013.2 |
| 20260506235018 | 13 | 12 | 9.7 | 22.5 | 0.00 | 0.00 | 0.00 | 23 | 1013.1 |
| 20260506234518 | 13 | 284 | 4.8 | 14.5 | 0.00 | 0.00 | 0.00 | 22 | 1013.2 |
| 20260506234117 | 14 | 287 | 6.4 | 24.1 | 0.00 | 0.00 | 0.00 | 23 | 1013.3 |
| 20260506233520 | 14 | 259 | 4.8 | 24.1 | 0.00 | 0.00 | 0.00 | 23 | 1013.2 |
| 20260506233020 | 13 | 48 | 6.4 | 22.5 | 0.00 | 0.00 | 0.00 | 23 | 1013.4 |
| 20260506232519 | 13 | 19 | 8.0 | 22.5 | 0.00 | 0.00 | 0.00 | 22 | 1013.3 |
| 20260506232018 | 13 | 315 | 6.4 | 16.1 | 0.00 | 0.00 | 0.00 | 22 | 1013.4 |
| 20260506231519 | 13 | 259 | 6.4 | 16.1 | 0.00 | 0.00 | 0.00 | 22 | 1013.3 |
| 20260506231021 | 13 | 300 | 6.4 | 19.3 | 0.00 | 0.00 | 0.00 | 22 | 1013.4 |
| 20260506230520 | 14 | 319 | 9.7 | 20.9 | 0.00 | 0.00 | 0.00 | 21 | 1013.4 |
| 20260506230017 | 14 | 331 | 8.0 | 20.9 | 0.00 | 0.00 | 0.00 | 22 | 1013.3 |
| 20260506225516 | 14 | 23 | 6.4 | 14.5 | 0.00 | 0.00 | 0.00 | 20 | 1013.3 |
| 20260506225018 | 14 | 303 | 4.8 | 14.5 | 0.00 | 0.00 | 0.00 | 21 | 1013.5 |
| 20260506224516 | 14 | 333 | 4.8 | 19.3 | 0.00 | 0.00 | 0.00 | 22 | 1013.4 |
| 20260506224114 | 13 | 236 | 8.0 | 17.7 | 0.00 | 0.00 | 0.00 | 21 | 1013.6 |
| 20260506223512 | 13 | 311 | 9.7 | 17.7 | 0.00 | 0.00 | 0.00 | 21 | 1013.6 |
| 20260506223012 | 13 | 256 | 9.7 | 17.7 | 0.00 | 0.00 | 0.00 | 23 | 1013.6 |
| 20260506222516 | 13 | 226 | 4.8 | 22.5 | 0.00 | 0.00 | 0.00 | 22 | 1013.5 |
| 20260506222010 | 13 | 250 | 8.0 | 22.5 | 0.00 | 0.00 | 0.00 | 22 | 1013.7 |
| 20260506221510 | 13 | 239 | 9.7 | 29.0 | 0.00 | 0.00 | 0.00 | 22 | 1013.8 |
| 20260506221009 | 13 | 259 | 14.5 | 29.0 | 0.00 | 0.00 | 0.00 | 21 | 1013.9 |
| 20260506220508 | 13 | 258 | 9.7 | 20.9 | 0.00 | 0.00 | 0.00 | 22 | 1013.9 |
| 20260506220008 | 13 | 302 | 8.0 | 17.7 | 0.00 | 0.00 | 0.00 | 22 | 1014.0 |
| 20260506215507 | 13 | 272 | 4.8 | 17.7 | 0.00 | 0.00 | 0.00 | 22 | 1014.0 |
| 20260506215007 | 13 | 303 | 11.3 | 20.9 | 0.00 | 0.00 | 0.00 | 21 | 1014.2 |
| 20260506214507 | 13 | 313 | 11.3 | 20.9 | 0.00 | 0.00 | 0.00 | 23 | 1014.3 |
| 20260506214106 | 13 | 271 | 12.9 | 22.5 | 0.00 | 0.00 | 0.00 | 23 | 1014.4 |
| 20260506213510 | 13 | 257 | 12.9 | 22.5 | 0.00 | 0.00 | 0.00 | 22 | 1014.6 |
| 20260506213006 | 13 | 242 | 8.0 | 17.7 | 0.00 | 0.00 | 0.00 | 21 | 1014.7 |
| 20260506212506 | 13 | 294 | 9.7 | 24.1 | 0.00 | 0.00 | 0.00 | 22 | 1014.8 |
| 20260506212009 | 13 | 265 | 11.3 | 24.1 | 0.00 | 0.00 | 0.00 | 22 | 1014.8 |
| 20260506211505 | 13 | 234 | 4.8 | 19.3 | 0.00 | 0.00 | 0.00 | 22 | 1014.8 |
| 20260506211005 | 13 | 290 | 8.0 | 19.3 | 0.00 | 0.00 | 0.00 | 22 | 1015.0 |
| 20260506210508 | 13 | 296 | 8.0 | 22.5 | 0.00 | 0.00 | 0.00 | 22 | 1015.0 |
| 20260506210007 | 13 | 279 | 11.3 | 22.5 | 0.00 | 0.00 | 0.00 | 23 | 1015.2 |
| 20260506205502 | 13 | 5 | 8.0 | 17.7 | 0.00 | 0.00 | 0.00 | 23 | 1015.1 |
| 20260506205002 | 13 | 220 | 6.4 | 27.4 | 0.00 | 0.00 | 0.00 | 21 | 1015.2 |
| 20260506204501 | 13 | 237 | 14.5 | 27.4 | 0.00 | 0.00 | 0.00 | 23 | 1015.4 |
| 20260506204102 | 12 | 255 | 3.2 | 20.9 | 0.00 | 0.00 | 0.00 | 22 | 1015.4 |
| 20260506203506 | 12 | 255 | 3.2 | 20.9 | 0.00 | 0.00 | 0.00 | 22 | 1015.3 |
| 20260506203008 | 12 | 311 | 12.9 | 20.9 | 0.00 | 0.00 | 0.00 | 23 | 1015.5 |
| 20260506202504 | 12 | 257 | 4.8 | 24.1 | 0.00 | 0.00 | 0.00 | 24 | 1015.5 |
| 20260506202004 | 12 | 305 | 8.0 | 24.1 | 0.00 | 0.00 | 0.00 | 23 | 1015.8 |
| 20260506201603 | 12 | 261 | 6.4 | 19.3 | 0.00 | 0.00 | 0.00 | 23 | 1015.7 |